Regional Weather Roundup
Issued by NWS

Home | Current Version | Previous Version | Graphics & Text | Print | Product List | Glossary On
Versions: 1 2 3 4 5 6 7 8 9 10 11 12 13 14 15 16 17 18 19 20 21 22 23 24 25 26 27 28 29 30 31 32 33 34 35 36 37 38 39 40 41 42 43 44 45 46 47 48 49 50
854
ASUS45 KCYS 290310
RWRWY

WYOMING REGIONAL WEATHER ROUNDUP
NATIONAL WEATHER SERVICE CHEYENNE WY
900 PM MDT WED JUN 28 2017

NOTE:  "FAIR" INDICATES FEW OR NO CLOUDS BELOW 12,000 FEET
WITH NO SIGNIFICANT WEATHER AND/OR OBSTRUCTIONS TO VISIBILITY.

WYZ001-290400-
YELLOWSTONE NATIONAL PARK

CITY           SKY/WX    TMP DP  RH WIND       PRES   REMARKS
LK YELLOWSTONE   N/A     40  40 100 CALM      30.13R
W YELLOWSTONE  NOT AVBL

$$
WYZ002>013-054>058-071-098>099-290400-
NORTHERN WYOMING

CITY           SKY/WX    TMP DP  RH WIND       PRES   REMARKS
JACKSON        MOCLDY    54  45  71 NW3       30.04R
CODY           MOCLDY    56  43  61 SW9G16    29.94F
GREYBULL       LGT RAIN  57  51  80 N9        29.90R
WORLAND        MOCLDY    60  46  59 N18G26    29.92R
SHERIDAN       CLOUDY    62  45  53 W18G29    29.89S
BUFFALO        FAIR      57  45  64 N12       29.93R
GILLETTE       CLOUDY    58  55  90 CALM      29.87R
NEWCASTLE      FAIR      66  45  45 E17G25    29.80R

$$
WYZ014>020-022>026-101>103-290400-
CENTRAL WYOMING

CITY           SKY/WX    TMP DP  RH WIND       PRES   REMARKS
BIG PINEY      MOCLDY    50  40  68 NE9       30.08R
PINEDALE       MOCLDY    46  43  87 MISG      30.08S
DUBOIS         FAIR      46  37  71 NW13      30.02F
LANDER         FAIR      59  37  44 N7        29.97R
RIVERTON       FAIR      55  46  71 N10       29.95S
CASPER         FAIR      66  35  31 W6        29.91R
DOUGLAS        FAIR      67  42  40 NW3       29.87S

$$
WYZ021-027>030-104>119-290400-
SOUTHERN WYOMING

CITY           SKY/WX    TMP DP  RH WIND       PRES   REMARKS
EVANSTON       FAIR      63  39  41 N10       30.05R
KEMMERER       RAIN      59  37  44 NW12      30.07S
FORT BRIDGER   FAIR      63  34  33 NW9       30.08R
ROCK SPRINGS   FAIR      59  35  40 N16       30.05R
DIXON          FAIR      69  29  22 N10       30.01R
RAWLINS        MOCLDY    67  33  28 NW7       30.01R
SARATOGA       FAIR      63  34  34 NW6       30.03R
LARAMIE        MOCLDY    63  35  35 W15G21    30.05R
CHEYENNE       FAIR      70  41  34 NW6       29.94R
TORRINGTON     FAIR      75  46  35 N21       29.77R
PINE BLUFFS    FAIR      66  41  39 SE12      29.86R

$$




USA.gov is the U.S. government's official web portal to all federal, state and local government web resources and services.